{"data":{"norad_id":59771,"intl_designator":"2024-091U","name":"STARLINK-31786","alt_names":[],"object_type":"PAYLOAD","status":"ACTIVE","operator":null,"country":"US","launch_date":"2024-05-14","launch_site_code":"AFWTR","launch_vehicle":null,"mission":null,"orbit_class":"UNKNOWN","rcs_meters":null,"size_class":null,"mass_kg":null,"dimensions":null,"purposes":["comms"],"wikipedia_slug":null,"has_3d_model":false,"image_url":null,"decayed_at":null,"tle_current":{"epoch":"2026-09-21T05:52:08.953248Z","epoch_age_seconds":107008,"freshness":"FRESH","line1":"1 59771U 24091U   26264.24454807  .00000163  00000+0  15948-4 0  9999","line2":"2 59771  53.1613 197.9190 0001191  86.9558 273.1581 15.34397865132957","mean_motion":15.34397865,"eccentricity":0.0001191,"inclination_deg":53.1613,"raan_deg":197.919,"arg_perigee_deg":86.9558,"mean_anomaly_deg":273.1581,"bstar":1.5948e-5,"rev_number":13295,"period_min":93.847888663479,"perigee_km":461.89484105602,"apogee_km":463.52433071277,"semimajor_km":6840.8465858844,"source":"CELESTRAK","updated_at":"2026-09-22T09:00:49.070640Z"}}}